Location: Stilling
(56.0622°N, 9.9882°E)
Time: 00:33:14
(UTC+00:00)

Cosmos 405 - Pass Details

Date: 13 July 2020
Orbit: 450 x 465 km, 81.3° (Epoch: 03 August)

Event Time Altitude Azimuth Distance (km) Brightness Sun altitude
Rises 22:05:08 0° 345° (NNW) 2,508 9.0 -10.4°
Reaches altitude 10° 22:07:14 10° 346° (NNW) 1,625 7.3 -10.5°
Maximum altitude 22:10:47 86° 74° (ENE) 469 2.9 -10.7°
Enters shadow 22:13:26 17° 165° (SSE) 1,247 4.5 -10.8°
